Flag for Poland Weather past 2 weeks in Bielsko-Biała, Poland

Now
33 °F

Overcast.


Feels Like: 30 °F
Forecast: 27 / 35 °F
Wind: 3 mph from South

Location: Katowice

Current Time: Jan 28, 2015 at 7:29:46 PM

Latest Report: Jan 28, 2015 at 6:00 PM


Visibility: 6 mi

Pressure: 29.88 "Hg

Humidity: 78%

Dew point: 27 °F

Location of Bielsko-BiałaLocation

Historic Weather in Bielsko-Biała — Graph

°F

Bielsko-Biała temperature yesterday

Maximum temperature yesterday: 33 °F (at 4:00 PM)
Minimum temperature yesterday: 23 °F (at 3:00 AM)
Average temperature yesterday: 29 °F

Past Weeks' High & Low Weather Summary

 TemperatureHumidityPressure
High53 °F (Jan 16, 1:00 PM)96% (Jan 17, 4:00 AM)30.32 "Hg (Jan 17, 4:00 AM)
Low23 °F (Jan 27, 3:00 AM)41% (Jan 13, 8:00 PM)29.75 "Hg (Jan 17, 6:00 AM)
Average36 °F84%30.03 "Hg
* Reported Jan 13 6:00 PM — Jan 28 6:00 PM, Bielsko-Biała, Weather by CustomWeather, © 2014

Note: Actual official high and low records may vary slightly from our data, if they occured in-between our weather recording intervals... More about our weather records

Advertising

Bielsko-Biała weather history for previous 24 hours

 ConditionsComfort  
Time TempWeatherWind HumidityBarometerVisibility
6:00 PM
Jan 28
33 °FOvercast.3 mph78%29.88 "Hg6 mi
5:00 PM33 °FFog.5 mph80%29.90 "Hg5 mi
4:00 PM34 °FFog.2 mph84%29.91 "Hg4 mi
3:00 PM34 °FOvercast.2 mph80%29.93 "Hg6 mi
2:00 PM34 °FOvercast.3 mph78%29.94 "Hg6 mi
1:00 PM34 °FFog.2 mph80%29.96 "Hg5 mi
12:00 PM34 °FOvercast.3 mph86%29.99 "Hg4 mi
11:00 AM33 °FLight snow. Low clouds.3 mph89%30.01 "Hg2 mi
10:00 AM33 °FSnow flurries. Low clouds.2 mph92%30.02 "Hg2 mi
9:00 AM33 °FLight snow. Low clouds.3 mph93%30.02 "Hg3 mi
8:00 AM32 °FLight snow. Low clouds.3 mph94%30.02 "Hg2 mi
7:00 AM32 °FLight snow. Low clouds.5 mph93%30.02 "Hg2 mi
6:00 AM32 °FOvercast.3 mph89%30.02 "Hg6 mi
5:00 AM32 °FOvercast.3 mph89%30.02 "Hg6 mi
4:00 AM32 °FOvercast.3 mph90%30.02 "Hg6 mi
3:00 AM32 °FOvercast.3 mph91%30.02 "Hg6 mi
2:00 AM32 °FFog.3 mph92%30.03 "Hg5 mi
1:00 AM32 °FFog.2 mph92%30.03 "Hg2 mi
12:00 AM32 °FLow clouds.3 mph93%30.03 "Hg3 mi
11:00 PM
Jan 27
33 °FFog.3 mph93%30.03 "Hg2 mi
10:00 PM33 °FFog.3 mph93%30.03 "Hg2 mi
9:00 PM32 °FFog.3 mph93%30.02 "Hg2 mi
8:00 PM32 °FOvercast.3 mph93%30.01 "Hg2 mi
7:00 PM32 °FLight snow. Low clouds.2 mph95%30.00 "Hg2 mi
Weather by CustomWeather, © 2014

See weather overviewHow to use our weather pages